Weather History for KMHV - June, 2014

Change the Weather History Date:

Tuesday, June 10, 2014

  Actual Average Record
Temperature  
Mean Temperature 82 °F -  
Max Temperature 95 °F 84 °F 100 °F (1991)
Min Temperature 68 °F 60 °F 47 °F (1976)
Cooling Degree Days 16    
Growing Degree Days 32 (Base 50)    
Moisture  
Dew Point 34 °F    
Average Humidity 17    
Maximum Humidity 28    
Minimum Humidity 9    
Precipitation  
Precipitation 0.00 in - - ()
Sea Level Pressure  
Sea Level Pressure 29.79 in    
Wind  
Wind Speed 9 mph (West)    
Max Wind Speed 34 mph    
Max Gust Speed 51 mph    
Visibility 10 miles    
Events      
Averages and records for this station are not official NWS values.
T = Trace of Precipitation, MM = Missing Value Source: NWS Daily Summary

Daily Weather History Graph

Daily Weather History Graph

Search for Another Location

Airport or City:

Trip Planner

Search our weather history database for the weather conditions in past years. The results will help you decide how hot, cold, wet, or windy it might be!

Date:

Astronomy

Jun. 10, 2014 Rise Set
Actual Time 5:37 AM PDT 8:06 PM PDT
Civil Twilight 5:08 AM PDT 8:35 PM PDT
Nautical Twilight 4:31 AM PDT 9:12 PM PDT
Astronomical Twilight 3:51 AM PDT 9:52 PM PDT
Moon 5:41 PM PDT (6/10) 3:40 AM PDT (6/10)
Length of Visible Light 15h 27m
Length of Day
14h 28m
Waxing Gibbous, 93% of the Moon is Illuminated
Jun 10
Waxing Gibbous
Jun 12
Full
Jun 19
Last Quarter
Jun 27
New
Jul 5
First Quarter

Hourly Weather History & Observations

Time (PDT) Temp. Dew Point Humidity Pressure Visibility Wind Dir Wind Speed Gust Speed Precip Events Conditions
12:15 AM 84.2 °F 37.4 °F 19% 29.81 in 10.0 mi WSW 8.1 mph - N/A   Clear
12:35 AM 82.4 °F 37.4 °F 20% 29.81 in 10.0 mi SW 5.8 mph - N/A   Clear
12:55 AM 82.4 °F 37.4 °F 20% 29.81 in 10.0 mi SW 6.9 mph - N/A   Clear
1:15 AM 80.6 °F 35.6 °F 20% 29.80 in 10.0 mi WSW 8.1 mph - N/A   Clear
1:35 AM 77.0 °F 32.0 °F 19% 29.80 in 10.0 mi South 8.1 mph - N/A   Clear
2:15 AM 75.2 °F 32.0 °F 21% 29.81 in 10.0 mi Calm Calm - N/A   Clear
2:35 AM 73.4 °F 32.0 °F 22% 29.80 in 10.0 mi Calm Calm - N/A   Clear
2:55 AM 75.2 °F 35.6 °F 24% 29.80 in 10.0 mi Calm Calm - N/A   Clear
3:15 AM 73.4 °F 33.8 °F 23% 29.80 in 10.0 mi Calm Calm - N/A   Clear
3:35 AM 71.6 °F 32.0 °F 23% 29.80 in 10.0 mi Calm Calm - N/A   Clear
3:55 AM 71.6 °F 33.8 °F 25% 29.79 in 10.0 mi Calm Calm - N/A   Clear
4:15 AM 69.8 °F 33.8 °F 27% 29.79 in 10.0 mi NW 3.5 mph - N/A   Clear
4:35 AM 69.8 °F 33.8 °F 27% 29.79 in 10.0 mi NNW 3.5 mph - N/A   Clear
4:55 AM 69.8 °F 33.8 °F 27% 29.79 in 10.0 mi NNW 3.5 mph - N/A   Clear
5:15 AM 68.0 °F 33.8 °F 28% 29.79 in 10.0 mi Calm Calm - N/A   Clear
5:35 AM 68.0 °F 32.0 °F 26% 29.79 in 8.0 mi Calm Calm - N/A   Clear
5:55 AM 68.0 °F 32.0 °F 26% 29.80 in 9.0 mi Calm Calm - N/A   Clear
6:15 AM 71.6 °F 33.8 °F 25% 29.79 in 10.0 mi Calm Calm - N/A   Clear
6:35 AM 73.4 °F 35.6 °F 25% 29.79 in 10.0 mi Calm Calm - N/A   Clear
6:55 AM 75.2 °F 35.6 °F 24% 29.80 in 7.0 mi Calm Calm - N/A   Clear
7:15 AM 75.2 °F 35.6 °F 24% 29.80 in 10.0 mi Calm Calm - N/A   Clear
7:35 AM 77.0 °F 35.6 °F 22% 29.81 in 10.0 mi Calm Calm - N/A   Clear
7:55 AM 78.8 °F 35.6 °F 21% 29.81 in 10.0 mi ENE 4.6 mph - N/A   Clear
8:15 AM 80.6 °F 35.6 °F 20% 29.82 in 10.0 mi NNE 3.5 mph - N/A   Clear
8:35 AM 82.4 °F 35.6 °F 19% 29.81 in 10.0 mi ENE 4.6 mph - N/A   Clear
8:55 AM 82.4 °F 35.6 °F 19% 29.82 in 10.0 mi East 4.6 mph - N/A   Clear
9:15 AM 84.2 °F 35.6 °F 18% 29.82 in 10.0 mi NE 4.6 mph - N/A   Clear
9:35 AM 86.0 °F 35.6 °F 17% 29.81 in 10.0 mi Calm Calm - N/A   Clear
9:55 AM 86.0 °F 35.6 °F 17% 29.81 in 10.0 mi Calm Calm - N/A   Clear
10:15 AM 89.6 °F 35.6 °F 15% 29.81 in 10.0 mi Calm Calm - N/A   Clear
10:35 AM 87.8 °F 35.6 °F 16% 29.81 in 10.0 mi Calm Calm - N/A   Clear
11:15 AM 91.4 °F 33.8 °F 13% 29.81 in 10.0 mi East 5.8 mph - N/A   Clear
11:35 AM 91.4 °F 32.0 °F 12% 29.81 in 10.0 mi Calm Calm - N/A   Clear
11:55 AM 93.2 °F 32.0 °F 11% 29.80 in 10.0 mi NE 8.1 mph - N/A   Clear
12:15 PM 93.2 °F 32.0 °F 11% 29.80 in 10.0 mi SE 5.8 mph - N/A   Clear
12:55 PM 95.0 °F 26.6 °F 9% 29.79 in 10.0 mi ESE 6.9 mph - N/A   Clear
1:15 PM 95.0 °F 28.4 °F 9% 29.79 in 10.0 mi SSW 11.5 mph 17.3 mph N/A   Clear
1:35 PM 95.0 °F 28.4 °F 9% 29.79 in 10.0 mi South 13.8 mph 18.4 mph N/A   Clear
1:55 PM 95.0 °F 28.4 °F 9% 29.78 in 10.0 mi SSE 9.2 mph - N/A   Clear
2:15 PM 95.0 °F 26.6 °F 9% 29.78 in 10.0 mi South 9.2 mph - N/A   Clear
2:35 PM 95.0 °F 32.0 °F 11% 29.77 in 10.0 mi SW 17.3 mph 23.0 mph N/A   Clear
2:55 PM 95.0 °F 32.0 °F 11% 29.77 in 10.0 mi SSW 20.7 mph - N/A   Clear
3:15 PM 95.0 °F 32.0 °F 11% 29.77 in 10.0 mi SSW 19.6 mph 25.3 mph N/A   Clear
3:35 PM 95.0 °F 33.8 °F 12% 29.76 in 10.0 mi SSW 21.9 mph 27.6 mph N/A   Clear
3:55 PM 95.0 °F 37.4 °F 13% 29.76 in 10.0 mi SSW 21.9 mph 32.2 mph N/A   Clear
4:15 PM 93.2 °F 37.4 °F 14% 29.75 in 10.0 mi SSW 23.0 mph 29.9 mph N/A   Clear
4:35 PM 93.2 °F 39.2 °F 15% 29.76 in 10.0 mi SSW 20.7 mph 26.5 mph N/A   Clear
4:55 PM 93.2 °F 37.4 °F 14% 29.76 in 10.0 mi West 15.0 mph 26.5 mph N/A   Clear
5:15 PM 93.2 °F 37.4 °F 14% 29.75 in 10.0 mi West 20.7 mph 28.8 mph N/A   Clear
5:35 PM 93.2 °F 37.4 °F 14% 29.74 in 10.0 mi WNW 23.0 mph 29.9 mph N/A   Clear
5:55 PM 91.4 °F 37.4 °F 15% 29.74 in 10.0 mi West 24.2 mph 31.1 mph N/A   Clear
6:15 PM 91.4 °F 35.6 °F 14% 29.75 in 10.0 mi West 19.6 mph 32.2 mph N/A   Clear
6:35 PM 89.6 °F 35.6 °F 15% 29.75 in 10.0 mi West 21.9 mph 27.6 mph N/A   Clear
6:55 PM 89.6 °F 35.6 °F 15% 29.76 in 10.0 mi West 26.5 mph 34.5 mph N/A   Clear
7:15 PM 87.8 °F 37.4 °F 17% 29.76 in 10.0 mi West 21.9 mph 34.5 mph N/A   Clear
7:35 PM 86.0 °F 37.4 °F 18% 29.76 in 10.0 mi West 18.4 mph 28.8 mph N/A   Clear
7:55 PM 86.0 °F 39.2 °F 19% 29.76 in 10.0 mi WNW 20.7 mph 28.8 mph N/A   Clear
8:15 PM 86.0 °F 39.2 °F 19% 29.76 in 10.0 mi WSW 18.4 mph 27.6 mph N/A   Clear
8:35 PM 84.2 °F 37.4 °F 19% 29.76 in 10.0 mi West 25.3 mph 31.1 mph N/A   Clear
8:55 PM 84.2 °F 35.6 °F 18% 29.76 in 10.0 mi West 26.5 mph 36.8 mph N/A   Clear
9:15 PM 82.4 °F 35.6 °F 19% 29.77 in 10.0 mi WNW 25.3 mph 41.4 mph N/A   Clear
9:35 PM 82.4 °F 32.0 °F 16% 29.76 in 10.0 mi WNW 29.9 mph 40.3 mph N/A   Clear
9:55 PM 82.4 °F 26.6 °F 13% 29.77 in 10.0 mi WNW 32.2 mph 40.3 mph N/A   Clear
10:15 PM 82.4 °F 24.8 °F 12% 29.77 in 10.0 mi WNW 32.2 mph 39.1 mph N/A   Clear
10:35 PM 80.6 °F 24.8 °F 13% 29.78 in 10.0 mi WNW 31.1 mph 40.3 mph N/A   Clear
10:55 PM 80.6 °F 26.6 °F 14% 29.78 in 10.0 mi WNW 34.5 mph 42.6 mph N/A   Clear
11:15 PM 80.6 °F 28.4 °F 15% 29.78 in 10.0 mi WNW 34.5 mph 50.6 mph N/A   Clear
11:35 PM 80.6 °F 30.2 °F 16% 29.79 in 10.0 mi WNW 17.3 mph 44.9 mph N/A   Clear
11:55 PM 78.8 °F 32.0 °F 18% 29.79 in 10.0 mi NW 19.6 mph 44.9 mph N/A   Clear